Weather History for Cortez, CO

Change the Weather History Date:

Monday, October 15, 2012

  Actual Average Record
Temperature  
Mean Temperature 50 °F 49 °F  
Max Temperature 70 °F 66 °F 78 °F (2011)
Min Temperature 29 °F 32 °F 24 °F (1997)
Degree Days  
Heating Degree Days 15 16  
Month to date heating degree days 167 202  
Since 1 July heating degree days 274 374  
Cooling Degree Days 0 0  
Month to date cooling degree days 0 0  
Year to date cooling degree days 746 426  
Moisture  
Dew Point 29 °F    
Average Humidity 53    
Maximum Humidity 92    
Minimum Humidity 14    
Precipitation  
Precipitation 0.00 in 0.04 in 0.00 in (2014)
Month to date precipitation 0.20 0.76  
Year to date precipitation 6.12 10.98  
Sea Level Pressure  
Sea Level Pressure 30.12 in    
Wind  
Wind Speed 4 mph (NE)    
Max Wind Speed 16 mph    
Max Gust Speed 24 mph    
Visibility 10 miles    
Events      
T = Trace of Precipitation, MM = Missing Value Source: NWS Daily Summary

Daily Weather History Graph

Daily Weather History Graph

Search for Another Location

Airport:

Trip Planner

Search our weather history database for the weather conditions in past years. The results will help you decide how hot, cold, wet, or windy it might be!

Date:

Astronomy

Oct. 15, 2012 Rise Set
Actual Time 7:22 AM MDT 6:36 PM MDT
Civil Twilight 6:56 AM MDT 7:02 PM MDT
Nautical Twilight 6:26 AM MDT 7:33 PM MDT
Astronomical Twilight 5:56 AM MDT 8:03 PM MDT
Moon 7:35 AM MDT (10/15) 6:40 PM MDT (10/15)
Length of Visible Light 12h 06m
Length of Day
11h 13m
New Moon, 0% of the Moon is Illuminated
Oct 15
New Moon
Oct 21
First Quarter
Oct 29
Full
Nov 6
Last Quarter
Nov 13
New

Hourly Weather History & Observations

Time (MDT) Temp. Windchill Dew Point Humidity Pressure Visibility Wind Dir Wind Speed Gust Speed Precip Events Conditions
12:53 AM 37.9 °F 34.4 °F 32.0 °F 79% 30.19 in 10.0 mi NE 4.6 mph - N/A   Clear
1:53 AM 36.0 °F - 30.9 °F 82% 30.20 in 10.0 mi Calm Calm - N/A   Clear
2:53 AM 34.0 °F - 30.0 °F 85% 30.19 in 10.0 mi Calm Calm - N/A   Clear
3:53 AM 32.0 °F - 28.9 °F 88% 30.18 in 10.0 mi Calm Calm - N/A   Clear
4:53 AM 30.9 °F - 28.0 °F 89% 30.18 in 10.0 mi Calm Calm - N/A   Clear
5:53 AM 30.9 °F - 27.0 °F 85% 30.18 in 10.0 mi Calm Calm - N/A   Clear
6:53 AM 30.0 °F 26.5 °F 26.1 °F 85% 30.22 in 10.0 mi ENE 3.5 mph - N/A   Clear
7:53 AM 30.9 °F - 27.0 °F 85% 30.25 in 10.0 mi Calm Calm - N/A   Clear
8:53 AM 42.1 °F 40.2 °F 33.1 °F 70% 30.23 in 10.0 mi ENE 3.5 mph - N/A   Clear
9:53 AM 53.1 °F - 35.1 °F 50% 30.20 in 10.0 mi Calm Calm - N/A   Clear
10:53 AM 59.0 °F - 34.0 °F 39% 30.17 in 10.0 mi Calm Calm - N/A   Clear
11:53 AM 63.0 °F - 34.0 °F 34% 30.14 in 10.0 mi Calm Calm - N/A   Clear
12:53 PM 66.0 °F - 32.0 °F 28% 30.12 in 10.0 mi SSW 4.6 mph - N/A   Clear
1:53 PM 68.0 °F - 33.1 °F 27% 30.07 in 10.0 mi Variable 6.9 mph - N/A   Clear
2:53 PM 69.1 °F - 34.0 °F 27% 30.04 in 10.0 mi Variable 4.6 mph - N/A   Clear
3:53 PM 70.0 °F - 25.0 °F 18% 30.04 in 10.0 mi WNW 12.7 mph - N/A   Clear
4:53 PM 70.0 °F - 18.0 °F 14% 30.01 in 10.0 mi WNW 11.5 mph - N/A   Clear
5:53 PM 66.0 °F - 23.0 °F 20% 30.01 in 10.0 mi WNW 11.5 mph - N/A   Clear
6:53 PM 60.1 °F - 26.1 °F 27% 30.05 in 10.0 mi Calm Calm - N/A   Clear
7:53 PM 52.0 °F - 28.9 °F 41% 30.07 in 10.0 mi NE 4.6 mph - N/A   Clear
8:53 PM 46.9 °F - 30.0 °F 52% 30.06 in 10.0 mi ENE 9.2 mph - N/A   Clear
9:53 PM 44.1 °F 39.5 °F 28.9 °F 55% 30.04 in 10.0 mi ENE 8.1 mph - N/A   Clear
10:53 PM 43.0 °F 38.2 °F 28.9 °F 58% 30.02 in 10.0 mi ENE 8.1 mph - N/A   Clear
11:53 PM 42.1 °F 38.4 °F 28.9 °F 60% 29.99 in 10.0 mi ENE 5.8 mph - N/A   Clear